Regional Weather Roundup
Issued by NWS

Home | Current Version | Previous Version | Graphics & Text | Print | Product List | Glossary On
Versions: 1 2 3 4 5 6 7 8 9 10 11 12 13 14 15 16 17 18 19 20 21 22 23 24 25 26 27 28 29 30 31 32 33 34 35 36 37 38 39 40 41 42 43 44 45 46 47 48 49 50
578
ASUS43 KIND 061159
RWRIN

WEATHER ROUNDUP FOR INDIANA
NATIONAL WEATHER SERVICE INDIANAPOLIS IN
700 AM EST SAT FEB 06 2016

NOTE: "FAIR" INDICATES FEW OR NO CLOUDS BELOW 12,000 FEET WITH NO
SIGNIFICANT WEATHER AND/OR OBSTRUCTIONS TO VISIBILITY.

* - STATION DOES NOT REPORT WEATHER SUCH AS PRECIPITATION OR FOG.

+ - STATION NOT QUALITY CONTROLLED BY THE NATIONAL WEATHER SERVICE.
    USE DATA WITH CAUTION...ESPECIALLY DEWPOINT AND RELATIVE
    HUMIDITY OBSERVATIONS.

INZ001>003-010>013-019-020-061300-
NORTHWEST INDIANA

CITY           SKY/WX    TMP DP  RH WIND       PRES   REMARKS
GARY /AIRPORT/ CLOUDY    27  21  80 S6        30.30S WCI  20
RENSSELAER +   CLEAR     23  19  86 SW5       30.32R WCI  17

$$

LMZ046-743>745-061300-
SOUTHERN LAKE MICHIGAN

STATION/POSITION TIME  TEMP    WIND        PRES    WAVE
                       AIR SEA DIR/SP/G            HT
                 (UTC) (F)     (DEG/KT/KT) (MB)    (FT)
BURNS HARBOR     1100   26     210/  5/  8 1026.4R
MICHIGAN CITY    1100   26     190/  7/  9   N/A

$$

INZ004-005-014>016-021>024-061300-
NORTH CENTRAL INDIANA

CITY           SKY/WX    TMP DP  RH WIND       PRES   REMARKS
GOSHEN         PTCLDY    21  19  92 SW3       30.30R FOG
6HR MIN TEMP:  20; 6HR MAX TEMP:  25;

PERU/GRISSOM   CLEAR     19  18  94 SW5       30.29S WCI  13
6HR MIN TEMP:  18; 6HR MAX TEMP:  23;

SOUTH BEND     CLOUDY    21  20  96 SW3       30.31R FOG
6HR MIN TEMP:  19; 6HR MAX TEMP:  22;


$$

INZ006>009-017-018-025>027-061300-
NORTHEAST INDIANA

CITY           SKY/WX    TMP DP  RH WIND       PRES   REMARKS
ANGOLA *+      CLEAR     19  19 100 CALM      30.27R
FORT WAYNE     PTCLDY    22  20  92 S6        30.31R FOG     WCI  14
6HR MIN TEMP:  22; 6HR MAX TEMP:  29;


$$

INZ028-029-035-036-043>045-051>053-061300-
WEST CENTRAL INDIANA

CITY           SKY/WX    TMP DP  RH WIND       PRES   REMARKS
GREENCASTLE +  CLEAR     21  16  79 CALM      30.32F HAZE
LAFAYETTE      CLEAR     18  15  88 NW3       30.32S
6HR MIN TEMP:  17; 6HR MAX TEMP:  22;

TERRE HAUTE    MOCLDY    22  18  85 CALM      30.33F
6HR MIN TEMP:  20; 6HR MAX TEMP:  24;


$$

INZ030>032-037>040-046>048-054>057-064-065-061300-
CENTRAL INDIANA

CITY           SKY/WX    TMP DP  RH WIND       PRES   REMARKS
GREENWOOD *+   CLOUDY    23  21  93 CALM      30.33F
INDIANAPOLIS   PTCLDY    21  18  88 SW5       30.31F WCI  15
6HR MIN TEMP:  20; 6HR MAX TEMP:  24;

-EAGLE CREEK   CLEAR     20  18  92 S3        30.32S
6HR MIN TEMP:  19; 6HR MAX TEMP:  24;

KOKOMO *+      CLEAR     21  18  86 S6        30.31R WCI  14
6HR MIN TEMP:  21; 6HR MAX TEMP:  25;

MT COMFORT *+  PTCLDY    21  19  93 CALM      30.32S
SHELBYVILLE    CLOUDY    22  18  85 CALM      30.33S FOG
6HR MIN TEMP:  22; 6HR MAX TEMP:  26;


$$

INZ033-034-041-042-049-050-058-059-061300-
EAST CENTRAL INDIANA

CITY           SKY/WX    TMP DP  RH WIND       PRES   REMARKS
MUNCIE         CLEAR     23  19  85 S5        30.31S FOG     WCI  17
6HR MIN TEMP:  22; 6HR MAX TEMP:  26;


$$

INZ060-061-067>069-081>083-085>088-061300-
SOUTHWEST INDIANA

CITY           SKY/WX    TMP DP  RH WIND       PRES   REMARKS
EVANSVILLE     MOCLDY    29  23  78 N3        30.34F
6HR MIN TEMP:  27; 6HR MAX TEMP:  32;

HUNTINGBURG *+ CLOUDY    25  21  86 NE3       30.35R
6HR MIN TEMP:  25; 6HR MAX TEMP:  28;


$$

INZ062-063-066-070>080-084-089>092-061300-
SOUTH CENTRAL AND SOUTHEAST INDIANA

CITY           SKY/WX    TMP DP  RH WIND       PRES   REMARKS
BLOOMINGTON    CLEAR     21  17  84 CALM      30.32F
6HR MIN TEMP:  20; 6HR MAX TEMP:  22;

MADISON *+     CLEAR     25  23  93 CALM      30.36R
SEYMOUR +      CLEAR     25  23  93 CALM      30.35S FOG

$$





USA.gov is the U.S. government's official web portal to all federal, state and local government web resources and services.